STARLINK-3561, 52284

Orbit data source: Space-Track

STARLINK-3561, 52284 is a payload satellite owned by SpaceX/Seattle (US) in LEO that was launched on Thu, 21 Apr 2022 UTC via an FALCON 9 launch vehicle from the Air Force Eastern Test Range (AFETR). Payload-class satellites include a variety of spacecraft equipped with specific instruments for various scientific and technological missions. These include communications satellites like Starlink; space stations such as the ISS; scientific satellites like the Hubble; Earth observation satellites from companies like Planet Labs, Umbra, and HawkEye 360; GPS; miniature CubeSats for education and research; and military/defense satellites.

Loading next visibility...
Identifier
52284, 2022-041Z
Orbit
LEO
Country
Flag of USUS
Related business
Manufacturer
SpaceX/Seattle
Mission
Operational Commercial Communications
Bus & Motor
STARLINK, Unknown motor
Mass
297 kg wet, ~275 kg dry
Launch date (UTC)
2022-04-21 (4 years ago)
Launch vehicle
FALCON 9
Launch site
Air Force Eastern Test Range (AFETR)
Object type
Payload
Rocket body
Debris
Shape & HBR
Box + 1 Pan, 10.1 m
Radar Cross Section
11.087 m², Large (>1 m²)

Expand to show TLE details & history
Last TLE update: 8 hours ago

TLE from 8 hours ago
0 STARLINK-3561
1 52284U 22041Z   26237.21281687 -.00000253  00000-0  36436-5 0  9993
2 52284  53.1614  54.9603 0000862  87.9374 272.1727 15.34382788240041
Epoch: 2026-08-25T05:06Z
TLE epoch observation values (Epoch: 2026-08-25T05:06:27.377Z)
Latitude
-0.00005°
Longitude
4.86279°
Altitude
463.634 km
Speed
7.636 km/s
True Right ascension
03h 39m 50s
True Declination
0° 00' 00"
Sunlit
Object was in daylight at epoch
Visualization orbit readout
Latitude
Unknown
Longitude
Unknown
Altitude
Unknown
Speed
Unknown
Apparent Right ascension
Unknown
Apparent Declination
Unknown
Sunlit
N/A
Visualization observer readout
Local Sidereal Time
04:07:40
Azimuth
Unknown
Elevation
Unknown
Doppler factor
Unknown
Orbital elements
Apogee altitude
463.601 km
Perigee altitude
462.421 km
Semi-major axis
6,841.148 km
Eccentricity
0.00009
Inclination
53.1614°
RAAN
54.9603°
Arg. of periapsis
87.9374°
True anomaly
272.16283°
Mean anomaly
272.1727°
Eccentric anomaly
272.16776°
Mean motion
3.83574 °/min
Orbital period
93.85 mins
BSTAR
0.0000036436
Loading maneuver chart data...
Computing Atmospheric mass density...
Loading historical data...
Loading historical data...
Loading historical data...
Loading historical data...
Loading historical data...
Loading historical data...
Loading historical data...

Documentation

Showing up to 5 results
|